Regional Weather Roundup
Issued by NWS

Home | Current Version | Previous Version | Graphics & Text | Print | Product List | Glossary On
Versions: 1 2 3 4 5 6 7 8 9 10 11 12 13 14 15 16 17 18 19 20 21 22 23 24 25 26 27 28 29 30 31 32 33 34 35 36 37 38 39 40 41 42 43 44 45 46 47 48 49 50
000
ASUS43 KLOT 071808
RWRIL

ILLINOIS REGIONAL WEATHER ROUNDUP
NATIONAL WEATHER SERVICE CHICAGO/ROMEOVILLE IL
100 PM CDT TUE JUL 07 2015

NOTE: "FAIR" INDICATES FEW OR NO CLOUDS BELOW 12,000 FEET WITH NO
SIGNIFICANT WEATHER AND/OR OBSTRUCTIONS TO VISIBILITY.

* THESE STATIONS ARE NOT UNDER NWS QUALITY CONTROL. THEY ALSO MAY NOT
  REPORT WEATHER SUCH AS PRECIPITATION OR FOG.

ILZ001-002-007-009-015-016-024-071900-
NORTHWEST ILLINOIS

CITY           SKY/WX    TMP DP  RH WIND       PRES   REMARKS
MOLINE         PTSUNNY   70  55  59 N10       30.03S HAZE
6HR MIN TEMP:  63; 6HR MAX TEMP:  73;

STERLING*      PTSUNNY   72  59  64 N9        30.03S
SAVANNA*       PTSUNNY   69  54  58 NE12      30.04S HAZE
$$

ILZ003-004-008-010-011-017-018-071900-
NORTH CENTRAL ILLINOIS

CITY           SKY/WX    TMP DP  RH WIND       PRES   REMARKS
ROCKFORD       CLOUDY    69  54  58 N15       30.04S
6HR MIN TEMP:  63; 6HR MAX TEMP:  72;

FREEPORT*      CLOUDY    67  55  64 N9        30.06S HAZE
ROCHELLE*      CLOUDY    68  57  67 N14       30.03S HAZE
DE KALB*       PTSUNNY   66  56  69 NE15      30.03F
PERU*          PTSUNNY   68  58  69 NE8       30.02F
$$

ILZ005-006-012>014-019>023-071900-
NORTHEAST ILLINOIS

CITY           SKY/WX    TMP DP  RH WIND       PRES   REMARKS
CHICAGO-OHARE  MOSUNNY   67  46  47 NE25      30.02R
6HR MIN TEMP:  57; 6HR MAX TEMP:  67; 6HR PCP:  0.03;

CHICAGO-MIDWAY MOSUNNY   68  47  46 NE21G28   30.01R
6HR MIN TEMP:  59; 6HR MAX TEMP:  69; 6HR PCP:  0.05;

AURORA         PTSUNNY   69  54  58 NE12      30.02R
6HR MIN TEMP:  60; 6HR MAX TEMP:  71;

LANSING*       CLOUDY    63  50  62 N13G24    30.02R
JOLIET*        PTSUNNY   70  54  57 N14G20    30.01S
WAUKEGAN       MOSUNNY   64  45  49 N12G25    30.02S
6HR MIN TEMP:  57; 6HR MAX TEMP:  65;

DUPAGE AIRPORT PTSUNNY   68  52  56 NE13      30.01R
6HR MIN TEMP:  60; 6HR MAX TEMP:  70; 6HR PCP:  0.01;

KANKAKEE*      CLOUDY    66  53  63 N15G24    30.01R
WHEELING       SUNNY     66  45  46 NE18G28   30.04R
6HR MIN TEMP:  58; 6HR MAX TEMP:  67; 6HR PCP:  0.01;

MORRIS*        CLOUDY    69  55  61 NE6       29.99S
ROMEOVILLE*    MOSUNNY   68  52  57 NE15G21   30.01S
NORTHERLY ISL    N/A     62  53  72 NW17        N/A
$$

LMZ740>746-071900-
SOUTHERN LAKE MICHIGAN

STATION/POSITION SKY/WX   TEMP    WIND        PRES    VSBY  WAVE
                          AIR SEA DIR/SP/G                  HT/PER
                          (F)     (DEG/KT/KT) (MB)    (MI)  (FT/S)
HARRISON CRIB              58     350/ 22/ 26   N/A
BURNHAM HARBOR             62     360/ 19/ 20   N/A
CALUMET HARBOR             60     350/ 17/ 22   N/A
BURNS HARBOR               59      10/ 19/ 23 1016.3R
MICHIGAN CITY              59     340/ 22/ 25   N/A
MICHIGAN CITY 6N           60 65   10/ 17/ 23   N/A           8/ 7
ST. JOSEPH                 60 64   30/ 19/ 23   N/A           8/ 2
$$

ILZ025>027-034>036-040-047-049-050-058-095>099-071900-
WEST-CENTRAL ILLINOIS

CITY           SKY/WX    TMP DP  RH WIND       PRES   REMARKS
QUINCY         CLOUDY    69  61  75 N12       30.04R HAZE
GALESBURG*     CLOUDY    69  58  69 NE13      30.03S HAZE
MACOMB*        CLOUDY    67  61  79 NE12      30.06R HAZE
JACKSONVILLE*  CLOUDY    67  63  89 N8        30.02R FOG
PITTSFIELD*    CLOUDY    66  62  86 N8        30.04S FOG
$$

ILZ028>032-037-038-041>044-048-051>054-059>061-071900-
CENTRAL ILLINOIS

CITY           SKY/WX    TMP DP  RH WIND       PRES   REMARKS
PONTIAC        CLOUDY    67  58  71 NE15      30.02R
BLOOMINGTON    PTSUNNY   67  60  78 NE18      30.01S
DECATUR        LGT RAIN  63  60  90 N15       29.99R FOG
PEORIA         LGT RAIN  65  60  84 NE10      30.03R
6HR MIN TEMP:  65; 6HR MAX TEMP:  67; 6HR PCP:  0.05;

LACON*         CLOUDY    66  60  79 NE8       30.01F
LINCOLN*       CLOUDY    67  60  78 NE10      30.01R
SPRINGFIELD    CLOUDY    69  63  81 NE12      30.01R
6HR MIN TEMP:  67; 6HR MAX TEMP:  73; 6HR PCP:  0.01;

TAYLORVILLE    RAIN      64  64 100 N9        29.99R
$$

ILZ033-039-045-046-055>057-062-063-071900-
EAST-CENTRAL ILLINOIS

CITY           SKY/WX    TMP DP  RH WIND       PRES   REMARKS
CHAMPAIGN      CLOUDY    62  59  90 N13G22    29.97R
DANVILLE*      LGT RAIN  63  60  91 N13G20    29.94R
RANTOUL*       CLOUDY    63  58  84 N18G25    29.99R HAZE
MATTOON        LGT RAIN  71  70  96 N15       29.94R
PARIS*         RAIN      69  67  94 N10G18    29.93R
$$

ILZ079-100>102-071900-
SOUTHWEST ILLINOIS

CITY           SKY/WX    TMP DP  RH WIND       PRES   REMARKS
BELLEVILLE     CLOUDY    74  74  99 VRB7      29.96R
CAHOKIA*       CLOUDY    73  68  84 N9        29.98R
SPARTA*        CLOUDY    77  73  85 SW7       29.98R
$$

ILZ064>066-069>071-074>076-080>082-084>086-088>090-092>094-071900-
SOUTH-CENTRAL ILLINOIS

CITY           SKY/WX    TMP DP  RH WIND       PRES   REMARKS
CARBONDALE     LGT RAIN  76  73  91 SW5       29.98R
6HR MIN TEMP:  72; 6HR MAX TEMP:  78; 6HR PCP:  1.16;

CAIRO*         LGT RAIN  80  74  83 SW9       29.99S HX  85
EFFINGHAM*     DRIZZLE   75  72  88 SW10      29.96S
MARION         DRIZZLE   77  75  94 S6        29.99R
MT. VERNON     CLOUDY    77  70  78 SW7       29.98R
CENTRALIA*     RAIN      76  71  82 W7        29.97S
SALEM*         DRIZZLE   79  73  81 SW8       29.96S HX  82
$$

ILZ067-068-072-073-078-083-087-091-071900-
SOUTHEAST ILLINOIS

CITY           SKY/WX    TMP DP  RH WIND       PRES   REMARKS
LAWRENCEVILLE  CLOUDY    80  73  79 SW16      29.94R HX  84
FLORA*         CLOUDY    78  71  78 W10       29.96S HX  80
FAIRFIELD*     DRIZZLE   77  73  88 SW6       29.96R
HARRISBURG*    LGT RAIN  75  75  98 S7        29.99S
ROBINSON*      LGT RAIN  73  72  95 W14G22    29.94S
CARMI*         DRIZZLE   76  70  80 S8        29.97S
$$

ABBREVIATIONS USED IN REMARKS
   TC - TEMPERATURE IN CELSIUS
  WCI - WIND CHILL INDEX
   HX - HEAT INDEX
  VSB - VISIBILITY
$$



USA.gov is the U.S. government's official web portal to all federal, state and local government web resources and services.